Theta_e
327 326 325 324 324 326 326 326 326 325 323 322 322 321 320 320 320 319 322 323 322 324 325 328 331 332 333 332 330 330 330 330 331 331 332 330 329 326 323 322 320 320 321 321 320 315 312 311 310 309 309 309 308 308 308 307 307 307 307 308 307 307 306 305 305 304 304 304 304 304 304 304 305 305 306 306 306 307 307 307 308 308 308 308 308
327 327 326 326 327 328 328 327 327 327 326 326 325 324 323 322 321 322 323 325 326 326 325 326 330 332 332 331 330 330 329 330 331 331 331 330 330 328 324 321 320 320 321 322 323 321 318 316 314 313 311 310 309 309 309 308 309 309 308 308 307 307 306 306 305 305 304 304 304 304 304 304 304 304 304 305 305 305 306 307 307 307 308 308 309
328 327 327 327 327 328 328 328 327 327 327 328 327 327 326 325 324 324 325 326 327 327 327 326 329 331 331 331 330 329 329 329 330 331 330 329 330 330 326 323 320 320 321 321 322 324 324 322 320 318 314 312 312 312 312 312 312 312 311 310 309 308 308 307 307 307 306 306 305 304 303 303 303 303 304 304 304 304 304 305 306 306 307 308 308
327 327 327 326 325 326 326 326 326 326 327 327 327 327 327 327 327 327 327 328 328 328 328 328 329 330 330 330 329 329 329 329 330 331 330 329 329 328 327 325 322 320 320 318 321 325 325 324 324 321 317 317 318 318 318 318 318 318 317 316 315 315 314 314 314 315 315 313 311 308 307 305 304 303 303 303 302 303 303 303 304 305 306 307 308
327 327 327 325 324 324 324 325 325 326 326 326 327 327 327 327 327 328 328 328 329 328 329 328 328 329 329 329 329 329 330 330 331 330 329 328 328 327 325 326 325 321 317 317 323 325 323 322 322 320 319 320 322 321 322 322 323 323 323 323 322 321 321 321 321 322 323 322 320 317 315 313 311 309 306 305 304 303 303 303 304 305 306 307 308
326 326 325 325 324 324 324 325 325 326 326 326 327 327 327 327 327 327 327 328 328 328 328 328 328 328 328 329 329 331 331 331 330 328 327 327 327 326 324 324 326 325 321 320 323 325 323 321 320 320 321 323 324 325 325 325 325 326 326 327 326 325 325 324 325 325 326 326 325 324 323 322 321 319 316 313 312 310 309 308 307 307 307 308 309
326 326 325 325 325 324 324 325 325 326 326 327 327 327 327 327 327 326 326 328 328 328 328 328 328 328 327 327 328 330 331 330 329 328 328 327 327 326 323 323 325 326 325 322 323 324 325 324 323 324 326 327 327 327 327 327 327 328 327 328 327 327 327 326 327 327 327 327 326 325 326 326 325 324 323 321 320 319 317 316 314 312 311 310 311
326 326 325 325 325 325 325 325 325 325 326 326 327 327 326 326 327 326 326 327 328 328 328 328 327 327 326 326 327 328 330 330 328 328 328 327 327 325 324 324 325 326 326 324 323 324 324 324 325 326 327 327 327 327 327 327 327 328 327 328 328 328 328 327 328 328 327 327 327 326 326 327 326 325 325 325 324 324 323 322 321 320 318 315 313
326 326 326 325 325 326 326 325 325 325 325 325 326 326 326 325 326 325 325 327 327 327 327 327 327 327 326 327 327 328 329 329 328 328 328 327 326 325 324 325 326 327 326 325 325 325 324 325 326 327 327 327 327 327 327 327 327 326 326 327 327 327 327 328 328 328 327 327 328 328 327 326 326 325 325 325 326 325 325 325 325 324 324 321 318
327 327 327 326 326 326 327 326 326 325 325 325 325 326 325 325 326 325 325 326 326 327 327 327 327 327 326 327 328 329 329 328 328 329 328 328 327 325 324 326 326 326 326 326 326 326 326 326 326 326 326 326 326 325 325 325 326 326 326 326 326 326 326 327 327 327 327 327 327 328 326 326 326 325 325 325 326 326 325 326 325 325 326 325 324
327 327 327 327 327 327 327 327 326 326 326 326 326 325 325 325 325 324 325 325 326 327 327 327 326 326 326 327 328 329 329 329 329 329 327 328 327 326 325 326 326 326 326 326 326 326 326 326 325 325 325 324 324 324 324 324 324 325 325 325 325 325 325 326 326 326 326 325 325 325 324 324 324 324 324 324 325 325 325 326 326 325 325 326 326
328 328 327 328 328 328 327 327 326 327 326 326 326 325 325 325 324 324 325 326 326 327 327 327 326 326 326 326 328 329 329 329 329 328 328 327 327 327 327 326 326 326 326 326 325 325 325 325 325 325 324 324 324 323 322 322 322 323 325 325 325 325 325 326 326 325 323 322 321 321 321 322 321 321 321 321 322 323 324 325 325 325 325 325 325
328 328 328 328 329 328 327 327 326 327 328 326 326 326 325 325 325 325 326 326 327 327 327 327 326 327 327 327 328 328 328 328 328 328 328 327 327 326 326 326 326 326 325 325 325 325 325 324 324 325 325 324 322 320 318 318 318 321 324 325 325 325 325 326 324 321 319 318 318 319 319 319 319 318 318 319 320 321 321 323 323 323 324 324 325
328 328 328 329 329 328 328 327 327 328 328 327 326 326 325 325 325 325 326 327 327 327 327 327 327 327 327 327 328 328 328 327 327 328 327 327 326 326 326 326 326 325 325 324 325 325 325 324 324 324 324 322 319 317 317 317 317 321 323 324 324 325 324 323 319 316 315 315 315 316 317 317 316 316 316 316 317 318 320 321 322 322 323 324 323
327 327 327 328 328 329 328 328 328 328 328 327 326 326 325 325 325 325 326 327 327 327 327 327 327 327 327 328 328 328 328 327 327 327 327 326 326 326 326 326 326 325 325 324 324 325 325 325 324 324 323 320 317 316 317 317 318 320 322 323 323 323 321 318 315 314 313 313 312 311 311 312 312 313 313 313 312 314 318 320 321 322 323 324 323
326 327 326 326 327 328 328 327 328 328 327 327 326 326 325 325 325 325 326 327 327 327 327 327 327 327 328 328 328 328 328 328 327 327 327 326 326 326 327 326 326 326 325 325 325 325 325 324 324 324 321 318 317 317 316 317 318 318 318 318 318 317 315 313 312 311 310 309 308 307 306 306 307 307 308 309 308 310 314 317 320 322 323 324 324
326 326 326 325 326 327 326 326 327 328 327 326 326 326 326 326 325 325 326 327 327 327 327 327 327 327 327 327 327 328 328 327 327 326 327 327 327 327 327 326 326 326 326 326 325 325 324 324 323 321 319 317 316 316 316 316 316 315 314 314 312 311 310 309 308 306 306 306 305 305 304 304 304 305 305 305 305 305 307 311 315 320 321 322 324
326 326 325 325 326 325 324 325 326 325 325 325 325 324 324 325 326 325 326 327 327 328 328 328 328 327 327 326 326 327 326 326 326 326 326 326 326 327 327 327 326 326 326 325 325 325 324 322 320 318 317 316 316 315 315 315 314 313 312 311 309 308 307 306 305 305 305 305 305 305 305 305 305 305 305 305 305 305 304 305 308 313 316 320 323
325 325 325 325 325 324 324 324 325 324 324 325 324 323 323 325 326 325 326 327 327 328 328 328 328 327 327 326 325 325 325 325 326 326 326 326 326 326 326 326 326 325 325 325 324 323 322 319 317 317 316 315 314 313 313 312 311 310 309 307 306 305 305 305 305 306 306 306 306 306 306 306 306 306 306 306 306 305 305 305 305 306 308 314 322
325 325 324 325 324 324 324 324 324 324 324 324 324 324 324 325 326 325 325 326 327 328 329 328 328 328 327 326 325 325 325 325 325 326 326 326 326 326 326 326 325 325 324 323 321 319 318 317 316 315 313 312 311 310 309 308 307 306 305 305 305 305 305 306 306 307 307 306 306 306 306 306 306 305 305 305 305 305 305 305 305 305 305 307 315
325 325 325 324 324 324 324 324 325 325 324 325 325 325 325 325 326 326 325 325 326 327 328 328 329 328 328 327 326 326 326 326 326 326 326 325 325 326 325 325 324 322 320 318 316 315 315 313 312 311 310 309 307 306 306 305 304 304 304 305 305 306 306 307 307 307 306 306 305 305 305 305 304 304 304 304 304 304 304 304 304 305 305 304 306
324 324 323 322 322 322 323 324 325 325 325 325 325 325 326 326 327 327 325 325 325 325 326 327 328 328 328 327 327 327 326 325 326 326 325 325 325 325 325 324 321 317 315 314 313 312 311 311 309 307 306 305 305 304 304 304 305 305 305 306 306 307 307 307 306 305 305 305 305 305 305 305 305 305 305 304 304 304 304 304 303 303 304 304 304
318 318 317 317 318 319 321 321 323 324 325 325 325 325 326 326 327 326 326 326 325 325 325 326 327 327 327 327 327 327 326 325 325 326 326 325 325 325 324 323 319 315 313 311 310 309 309 308 307 305 304 304 304 304 305 305 305 306 306 307 307 307 306 306 305 305 306 306 306 306 306 305 305 305 305 304 304 304 304 303 303 303 302 303 303
315 315 314 313 314 317 319 319 321 322 323 324 324 325 326 326 326 326 326 326 326 326 325 325 325 326 326 325 326 327 326 326 325 325 326 325 325 325 324 322 318 314 311 309 307 307 307 306 305 305 305 305 305 305 305 305 306 306 307 307 307 306 306 306 306 306 306 306 305 305 305 304 304 304 303 303 303 303 303 303 303 303 303 303 302
317 316 315 314 315 317 319 319 320 321 321 322 323 325 326 326 326 325 325 325 325 325 325 325 324 325 325 325 325 326 326 326 326 325 325 324 324 324 323 321 318 314 310 308 307 306 306 306 306 306 306 306 305 305 305 306 307 307 307 307 306 306 306 306 306 305 305 304 304 303 303 303 302 302 302 302 302 302 302 302 302 302 302 302 302
318 317 317 317 318 319 321 321 322 322 322 321 320 322 325 325 325 324 324 324 325 325 325 325 325 325 326 326 326 326 326 325 325 325 325 324 323 324 323 321 317 313 311 309 308 307 306 306 306 306 306 305 305 305 306 307 308 307 307 306 306 307 306 305 304 304 303 303 303 303 302 302 302 302 302 301 301 301 301 301 301 301 301 301 301
316 315 315 317 319 320 322 323 323 323 322 321 320 320 323 324 324 324 324 324 324 325 325 325 325 325 325 326 326 327 326 326 325 325 325 324 323 323 322 320 317 314 313 311 309 308 306 305 306 306 306 306 305 306 307 308 308 307 307 307 307 306 305 304 304 304 304 304 304 304 304 304 303 303 302 301 301 301 301 300 300 300 300 300 301
315 314 313 314 318 320 321 323 323 323 322 321 320 320 322 323 322 322 322 322 323 324 325 325 325 325 325 325 326 326 326 325 326 325 325 324 324 323 322 320 318 316 314 313 312 309 306 306 307 307 307 307 307 307 308 308 307 307 307 307 307 306 305 305 305 305 306 306 306 306 306 306 306 305 304 303 302 301 301 300 301 301 301 301 301
316 316 315 314 316 319 320 322 323 323 322 321 319 319 320 321 321 320 320 320 322 323 323 324 324 324 325 325 325 326 326 325 325 325 325 324 324 323 321 318 317 317 315 315 314 311 308 308 308 308 308 307 307 307 308 307 307 307 307 307 307 307 306 306 306 306 306 307 307 307 308 308 308 308 306 304 303 302 301 301 301 301 301 301 301
319 318 316 316 316 319 320 320 320 320 321 320 319 317 317 319 319 318 318 319 321 323 323 323 323 323 324 325 325 326 326 325 325 325 324 324 324 323 321 318 317 317 315 314 313 310 309 309 308 309 308 307 307 307 307 307 307 307 307 308 308 308 308 307 307 307 307 308 308 308 308 309 309 309 308 307 304 302 301 301 301 301 302 302 302
321 320 318 316 315 318 320 319 316 317 319 320 319 316 315 317 317 317 318 320 321 322 322 322 322 322 324 325 325 325 325 325 325 324 323 323 324 323 321 318 317 316 313 312 313 310 309 309 309 309 309 308 308 307 307 307 307 307 308 308 308 308 308 308 308 308 308 308 309 309 309 309 310 310 310 309 306 303 302 301 301 301 302 302 301
322 322 319 315 313 315 317 316 314 314 317 319 317 314 315 317 317 319 320 320 321 321 321 321 321 322 323 325 325 325 325 325 324 323 322 323 323 323 321 318 315 313 310 310 312 311 309 309 309 309 309 309 308 308 307 307 307 307 307 308 308 308 308 308 308 308 309 309 309 309 310 310 310 310 311 310 307 303 302 301 301 301 301 301 301
323 322 318 312 310 310 311 312 311 311 315 317 315 316 318 319 320 321 321 321 321 321 320 319 319 321 323 324 324 324 324 324 324 323 322 322 322 322 321 319 314 310 308 310 311 311 309 309 309 309 309 309 309 308 308 307 307 307 307 307 307 307 308 308 308 309 309 309 309 310 310 310 310 310 311 310 307 303 302 301 301 301 301 301 300
322 320 313 307 306 307 307 308 308 309 313 314 314 317 319 320 321 321 321 321 321 321 320 318 317 319 322 323 324 323 324 324 323 322 321 321 321 321 320 318 314 310 310 310 311 310 310 309 309 309 310 310 309 309 308 308 307 307 307 307 307 308 308 308 308 309 309 309 309 310 310 310 310 311 311 311 308 304 302 301 301 301 301 300 300
320 315 308 304 305 305 305 306 306 307 310 310 312 315 318 318 319 320 321 321 321 320 319 318 316 318 321 323 323 323 323 324 322 320 319 318 319 319 318 317 315 313 312 311 311 311 310 310 309 309 310 310 310 309 309 308 308 307 307 307 307 308 308 308 309 309 309 309 310 310 310 310 310 310 311 311 309 305 302 301 301 301 300 300 299
313 308 305 305 305 305 305 306 306 307 307 308 310 312 314 315 317 318 320 320 319 318 319 318 316 318 321 322 322 323 323 322 320 318 316 316 316 317 317 316 316 315 314 313 313 312 311 310 309 309 310 310 310 310 309 309 309 308 308 308 308 308 309 309 309 309 309 309 310 310 310 310 310 310 311 312 310 306 302 301 301 300 300 299 299
307 305 305 305 305 305 306 306 306 306 306 307 308 308 310 311 313 316 319 320 318 317 317 317 316 317 321 322 321 322 322 320 318 317 316 315 316 316 316 316 316 316 316 316 315 315 314 313 311 310 309 310 310 310 309 309 309 309 309 309 309 309 309 309 309 309 309 309 309 310 310 310 310 310 311 312 310 306 302 301 301 300 300 299 298
307 306 307 307 306 306 306 307 307 307 306 306 306 306 307 308 311 314 317 319 319 317 316 316 316 315 318 321 321 321 320 319 317 316 316 316 316 315 315 316 316 316 317 317 317 316 316 316 315 312 310 309 310 310 310 310 309 310 310 309 309 309 309 309 309 309 309 309 309 310 310 310 310 310 311 312 311 307 302 301 300 300 299 299 298
309 309 309 309 309 308 308 307 306 306 307 307 307 307 307 308 310 313 314 316 318 318 316 316 315 315 316 318 319 319 319 318 317 316 316 315 315 315 315 315 315 315 316 316 316 317 317 317 317 316 313 310 310 311 311 310 309 309 309 309 309 309 309 309 309 309 309 309 309 310 310 310 310 310 311 311 310 307 303 301 300 300 299 298 298
311 312 312 312 311 311 311 310 308 307 307 307 308 309 309 309 310 311 311 312 315 317 317 315 314 314 315 315 316 316 317 316 315 315 315 314 314 314 314 314 314 314 314 314 315 315 316 317 317 317 315 311 310 312 312 310 309 309 310 310 309 309 309 309 309 309 309 309 310 309 310 310 310 310 311 311 310 307 303 301 300 300 299 298 298
313 313 314 313 313 313 313 312 311 310 309 308 309 310 310 310 310 309 308 308 310 314 315 314 312 312 314 315 315 315 315 315 315 315 314 313 313 313 313 312 312 312 312 313 313 314 315 315 316 317 315 312 311 313 313 312 312 311 311 310 309 309 309 309 309 309 309 309 309 310 310 310 310 310 310 311 309 306 303 301 300 300 299 298 298
315 315 315 314 314 313 313 313 313 313 312 312 311 311 311 311 311 311 309 307 308 311 313 314 314 313 313 314 314 314 314 314 314 314 314 313 313 312 312 311 311 311 311 311 312 313 314 314 314 314 313 312 312 314 314 314 313 312 312 311 310 310 310 309 309 309 309 309 309 309 310 310 310 310 310 310 308 305 302 300 300 299 298 298 297
315 316 315 313 314 314 314 314 314 314 313 314 313 313 312 311 311 312 312 309 308 310 311 314 315 315 314 314 313 313 313 313 313 313 313 312 312 311 310 310 310 311 311 311 312 313 314 314 314 314 313 313 313 314 314 314 313 313 312 312 312 312 311 311 310 310 311 310 310 309 310 309 309 310 310 310 307 303 301 300 299 298 298 297 297
315 315 314 314 315 315 314 313 314 314 314 314 314 314 313 312 311 311 312 312 311 311 312 313 314 314 314 313 313 312 313 313 313 312 312 312 311 310 310 310 310 310 310 310 310 311 313 313 314 314 314 313 313 313 313 313 313 313 313 312 312 312 312 312 311 311 311 311 310 309 309 309 309 310 310 309 305 302 300 300 299 298 297 297 296
316 316 316 316 316 316 315 314 314 314 314 314 314 314 314 314 313 312 312 312 312 312 312 312 312 312 312 312 312 312 312 312 312 311 311 311 311 311 311 311 311 311 312 313 312 312 312 312 312 312 313 313 313 313 313 313 313 313 313 313 312 312 312 312 311 311 311 310 309 309 309 309 309 309 309 307 304 301 300 300 299 297 297 296 296
317 318 318 317 316 316 316 316 315 314 314 314 314 315 314 314 314 314 314 313 313 312 312 312 312 311 311 311 311 311 312 312 312 311 312 312 313 314 315 315 315 315 315 316 316 315 315 314 314 314 314 315 315 315 315 314 313 314 314 314 314 313 313 312 311 311 310 309 309 309 308 309 309 308 307 304 301 300 300 299 298 297 296 296 296
319 319 319 318 317 317 317 317 316 316 316 315 315 315 315 315 315 315 315 315 314 314 314 314 314 314 314 313 313 313 313 313 313 313 314 314 315 316 316 317 317 317 317 317 317 317 317 317 317 317 317 317 317 316 316 316 316 316 315 316 315 313 312 312 311 310 309 309 309 308 308 308 309 308 305 302 300 299 299 298 297 296 296 295 295
319 319 319 319 319 318 318 318 318 318 317 317 316 316 316 316 316 316 316 315 315 315 315 315 315 315 315 315 315 315 315 315 315 315 315 316 316 316 317 317 317 317 318 318 318 318 318 318 318 318 318 317 317 317 317 317 317 317 317 316 315 314 312 311 310 310 309 308 308 308 307 308 308 306 302 300 299 299 298 298 297 296 296 295 295
317 317 317 317 318 318 318 318 319 319 319 318 318 318 317 317 317 317 316 316 316 316 316 316 316 315 315 315 315 315 315 315 315 316 316 316 316 316 316 317 317 317 318 318 318 318 319 318 318 318 317 317 318 317 317 317 317 317 317 316 316 315 313 312 311 310 309 308 308 308 307 307 305 303 300 299 299 298 297 297 296 296 295 295 295
316 315 315 315 316 316 316 317 317 317 318 318 318 318 318 318 318 317 318 318 317 317 317 317 317 316 316 316 316 316 315 316 316 316 316 316 316 317 317 317 317 317 317 317 317 318 318 318 317 317 317 317 317 317 317 317 316 316 316 316 315 314 313 312 311 309 308 308 308 309 307 305 303 301 300 299 299 298 297 296 295 295 295 295 295
313 313 313 313 315 315 315 315 315 315 315 315 315 315 316 316 316 317 317 317 317 318 318 318 318 318 318 318 317 317 317 316 316 316 317 317 317 317 317 318 317 317 316 316 316 316 317 317 317 317 317 317 317 317 317 317 316 316 315 315 315 313 313 313 311 309 308 309 309 308 306 304 302 301 301 299 297 297 297 295 295 295 295 295 295
Wind_Speed
10 10 9 8 7 6 6 5 6 6 6 6 6 7 6 6 7 7 7 8 9 10 11 11 10 9 8 7 6 6 6 6 5 5 5 4 5 5 5 5 5 4 5 5 4 4 4 4 3 3 3 4 4 5 5 6 6 6 6 6 6 6 6 6 7 6 6 6 6 6 6 6 7 7 8 8 9 9 10 11 11 11 11 12 12
10 10 9 8 7 7 6 5 5 5 5 6 6 6 6 6 6 6 6 6 5 6 8 9 10 10 8 7 6 5 5 5 5 4 4 4 5 4 4 4 4 3 4 5 5 6 6 6 5 4 4 5 6 7 8 7 7 7 8 8 8 8 8 8 8 7 7 7 6 6 6 6 6 6 6 7 7 8 9 9 10 10 11 11 12
10 10 9 9 8 7 6 6 5 4 5 6 6 6 5 5 5 6 6 6 5 4 5 7 9 10 9 8 6 5 4 5 5 4 4 5 5 3 3 4 4 3 4 5 7 7 7 7 7 7 8 9 11 11 11 11 11 12 12 12 11 11 11 11 11 11 10 10 9 8 7 6 6 6 6 7 7 7 8 8 9 9 10 11 12
11 11 11 9 8 8 7 6 6 6 6 5 5 5 4 5 5 6 6 6 6 5 5 6 8 10 10 8 6 6 6 6 6 6 5 5 5 5 5 4 3 3 4 6 9 9 7 6 7 7 11 13 15 14 14 14 14 14 14 14 13 13 13 14 14 14 13 13 13 12 11 10 9 8 8 8 7 8 8 8 8 9 10 11 12
12 11 11 10 8 8 7 7 7 7 6 6 6 5 4 4 5 6 7 7 7 6 6 7 8 9 9 8 7 7 7 8 8 7 6 5 5 5 5 6 3 3 5 7 10 10 9 7 6 7 11 13 13 13 12 11 12 12 12 11 12 12 12 13 13 13 13 14 14 14 14 14 13 12 11 10 10 9 9 9 9 9 10 10 11
11 11 11 9 8 7 8 8 8 7 6 6 7 5 4 4 5 5 6 8 8 7 7 8 8 9 9 8 7 7 8 9 8 7 6 5 5 4 5 6 4 3 6 7 11 12 11 10 9 10 11 11 10 9 8 7 8 8 8 8 8 9 9 9 10 11 11 11 12 12 13 13 13 13 13 12 12 12 11 10 10 9 10 10 10
11 11 10 9 8 7 7 8 8 7 7 7 7 6 5 4 5 5 6 7 9 8 8 8 8 8 8 6 6 7 8 8 7 7 6 5 5 5 5 7 7 7 7 8 11 11 11 10 9 9 9 9 8 7 6 4 4 5 5 6 6 6 6 7 8 9 8 8 10 10 11 10 10 11 11 11 11 11 11 11 11 10 10 10 9
11 11 11 10 9 8 8 8 8 8 7 8 8 7 6 5 6 6 7 7 9 9 9 9 9 8 7 6 6 7 8 7 5 6 7 6 5 4 5 6 7 9 8 8 10 10 10 9 7 8 8 8 6 5 4 3 3 3 4 4 4 4 5 6 7 7 6 7 9 10 10 9 9 9 8 9 9 9 10 10 10 10 10 10 9
11 11 11 11 10 9 9 8 8 8 8 8 8 8 7 7 7 8 8 8 9 10 10 10 9 7 6 6 6 7 7 6 5 5 7 8 7 6 6 6 7 8 8 8 8 8 8 7 6 7 7 6 5 4 3 3 3 3 4 3 3 4 4 5 5 5 5 6 8 8 9 9 8 8 8 8 8 7 8 8 8 8 9 10 10
10 10 11 11 11 10 10 9 8 8 8 8 8 8 8 8 8 8 9 9 10 11 11 11 10 8 7 6 6 7 7 7 6 6 8 9 8 7 7 7 8 8 7 8 8 8 8 7 6 6 5 5 4 3 3 3 4 4 5 4 4 5 5 5 4 4 5 6 5 5 7 8 7 8 8 9 9 8 8 7 7 7 8 9 9
10 10 10 11 10 10 10 9 9 9 9 9 8 8 8 9 9 9 10 10 11 11 11 11 10 9 8 7 7 7 6 5 5 7 9 9 8 7 7 7 8 8 7 7 8 8 8 6 5 4 4 3 3 3 3 3 4 4 5 5 5 6 6 5 4 5 6 6 6 5 6 7 7 8 8 8 7 8 8 7 8 8 8 9 8
10 10 10 10 10 9 9 9 9 9 9 9 8 8 9 9 9 10 10 11 12 11 10 10 11 10 9 8 8 8 6 6 6 8 8 9 9 8 7 6 7 8 7 6 6 6 6 5 4 3 3 4 3 4 4 4 4 4 5 5 6 6 7 7 7 8 9 8 8 7 8 8 9 9 9 8 6 6 6 6 7 8 8 9 8
10 10 10 10 10 9 8 10 10 9 9 9 9 10 10 10 10 11 11 11 12 12 10 10 11 12 12 11 9 8 7 6 7 7 8 9 9 8 8 7 8 7 6 6 5 4 4 3 2 2 3 4 4 5 5 4 5 5 6 6 7 7 8 9 10 11 11 10 10 10 10 10 11 11 11 11 9 8 6 5 6 7 8 8 7
10 10 10 10 10 9 9 10 10 10 9 9 9 11 11 11 10 11 12 11 11 12 11 11 10 12 15 13 11 8 7 6 7 7 8 9 9 9 9 8 7 7 6 5 4 3 3 2 1 2 3 4 5 6 6 7 7 7 7 7 8 9 10 10 11 11 11 11 11 11 11 11 11 12 12 13 12 12 10 8 6 6 6 7 6
10 10 11 11 11 10 10 10 10 10 10 9 9 11 12 11 11 11 12 12 11 11 11 11 10 11 13 12 11 10 8 7 8 7 7 9 10 10 10 9 7 7 6 6 5 4 3 3 3 4 5 6 7 8 8 9 9 8 8 8 9 10 10 10 10 10 10 10 10 10 10 10 10 11 11 12 12 13 13 12 10 9 8 5 4
11 11 11 11 11 10 10 10 9 10 10 10 9 10 12 12 12 12 11 11 11 11 11 11 10 11 10 10 11 11 9 8 9 8 7 8 10 11 11 9 8 9 8 7 6 5 5 5 5 6 6 7 8 8 9 10 10 9 8 8 8 8 8 8 8 9 9 9 9 9 10 10 10 10 10 10 10 12 13 13 12 11 11 8 4
11 10 10 10 10 10 9 9 9 10 10 10 10 10 11 12 13 12 11 11 10 11 12 12 10 10 9 8 9 9 9 10 9 7 5 6 9 11 12 10 8 9 9 8 7 7 7 7 7 7 7 8 9 9 10 11 10 9 8 7 7 7 7 7 8 8 8 8 8 9 9 9 9 9 9 9 9 10 11 11 12 12 13 13 7
9 8 8 9 9 9 8 8 9 9 10 10 11 10 10 11 12 12 11 10 9 9 12 13 11 10 9 6 5 6 9 12 10 8 7 6 8 10 10 9 8 8 9 9 9 9 9 7 7 8 9 9 9 10 9 9 9 7 7 6 6 6 7 7 7 8 8 9 9 9 9 9 10 10 10 10 11 11 11 11 12 12 13 15 11
8 7 8 8 9 8 7 7 8 9 10 10 10 9 10 11 12 12 11 11 9 8 11 13 12 11 10 7 5 5 7 9 9 9 10 8 9 9 9 9 11 11 11 12 11 10 9 8 9 9 9 9 9 9 8 7 7 6 6 6 6 6 7 7 8 9 9 10 10 10 10 10 11 11 11 11 12 12 12 12 12 12 13 14 13
8 8 7 7 7 7 6 6 7 8 9 9 9 8 9 10 11 11 11 11 10 9 10 11 11 12 12 10 6 4 4 4 4 8 12 12 12 11 11 12 14 15 13 12 11 10 10 10 10 9 8 8 8 7 6 6 6 5 6 6 6 6 7 8 9 9 10 10 10 11 11 12 12 12 12 12 12 12 12 12 13 13 13 13 13
9 8 8 7 6 6 5 6 6 7 8 8 9 9 8 9 10 10 10 10 11 11 11 10 11 12 11 11 8 4 3 3 4 7 9 12 14 15 15 15 15 15 14 13 12 11 11 10 9 8 7 7 7 6 6 6 5 5 6 6 7 7 8 9 9 10 10 11 11 12 12 13 13 14 14 14 14 14 13 13 13 13 13 12 12
9 7 7 6 6 6 6 6 6 7 7 6 8 8 8 9 10 10 9 9 10 11 12 11 11 11 9 10 10 7 4 3 6 9 8 9 12 17 18 17 17 16 15 13 12 11 9 9 8 7 7 6 7 7 6 6 6 6 7 7 7 8 8 9 10 10 11 12 12 13 13 14 14 15 15 15 15 15 15 15 14 13 13 12 11
8 6 5 5 6 6 6 6 6 6 6 6 6 7 8 8 9 9 9 10 10 11 12 13 12 12 10 10 10 8 6 5 5 8 10 10 12 17 18 15 16 17 15 13 11 10 9 9 8 7 7 7 7 7 7 7 7 8 8 8 8 8 9 10 11 11 12 12 12 13 13 13 14 14 15 15 15 15 15 15 15 14 14 13 12
8 6 6 5 6 6 5 5 5 5 6 6 6 6 7 7 8 8 8 9 10 11 12 13 12 12 12 11 11 9 8 6 5 7 11 11 12 17 17 14 15 16 14 13 11 10 10 10 9 9 8 8 8 8 8 8 8 8 8 8 8 9 10 10 11 11 11 12 12 12 12 12 13 13 13 14 14 14 14 14 14 14 14 13 13
9 8 7 6 6 6 5 5 5 5 5 5 6 7 7 6 6 6 6 8 9 10 11 12 12 11 11 11 11 10 9 8 5 6 11 12 14 17 15 13 16 17 15 13 12 11 11 11 11 10 10 9 9 9 9 8 8 8 7 8 9 9 10 10 10 11 11 12 12 12 12 13 13 13 14 14 14 14 14 13 13 13 13 13 12
9 8 8 8 7 7 7 7 6 5 4 3 5 8 8 7 6 5 6 6 7 9 10 11 11 11 11 10 10 10 10 9 7 7 11 13 15 18 16 14 16 16 13 12 11 10 11 12 12 11 10 10 10 9 9 8 7 8 7 8 9 9 10 10 11 11 12 12 13 13 14 14 15 14 15 15 15 14 14 14 13 13 13 12 12
8 8 9 9 9 9 8 7 6 5 3 1 2 6 8 7 6 6 6 6 7 7 8 9 10 10 10 10 9 10 10 9 8 8 10 11 14 17 18 18 18 15 11 11 10 9 11 13 12 11 11 10 9 9 8 7 7 7 7 8 9 10 10 10 11 11 12 13 13 14 15 16 17 17 17 16 16 16 15 14 13 13 13 12 12
8 8 8 8 9 10 9 8 7 5 4 2 2 5 7 7 6 6 5 6 6 7 7 8 8 9 9 9 9 9 8 9 9 8 9 10 12 16 18 16 15 15 14 10 9 10 12 13 11 11 10 10 9 8 7 7 6 7 7 8 8 9 9 8 9 9 10 11 12 14 15 17 18 19 19 19 18 17 17 15 15 14 13 13 12
7 7 7 7 8 9 9 8 7 5 4 3 3 4 6 7 6 5 5 5 5 6 6 6 6 7 8 9 10 10 9 9 10 9 9 11 12 16 18 11 6 13 17 13 11 11 12 13 12 11 11 10 9 8 8 8 7 7 8 8 7 6 5 5 5 6 8 9 11 13 15 16 18 19 20 20 19 19 18 16 15 15 14 14 14
7 7 6 6 7 8 8 7 7 6 5 4 3 3 4 6 6 5 5 5 5 4 4 3 4 5 7 10 12 12 12 10 10 11 10 11 13 16 17 9 2 8 15 15 14 14 13 13 12 11 10 10 10 9 8 8 8 7 8 7 6 4 2 1 3 5 7 9 11 13 15 16 18 19 21 21 20 19 18 16 15 15 15 14 15
6 5 5 5 6 7 8 7 6 6 6 4 3 3 3 4 5 5 5 5 5 4 2 1 1 3 5 10 12 12 12 10 10 12 11 11 13 15 15 8 1 4 11 15 16 15 14 12 10 9 9 10 10 10 9 9 9 8 8 7 6 4 3 2 1 4 6 9 11 13 14 16 17 19 21 22 21 20 18 17 15 15 15 15 15
4 3 3 3 4 6 7 7 6 6 6 5 4 3 3 4 4 4 5 5 5 3 2 2 3 3 5 8 10 9 9 10 11 13 13 13 14 16 15 8 1 3 11 14 14 14 13 11 10 9 9 10 10 10 10 10 10 9 8 7 6 6 5 4 3 4 6 8 10 11 13 15 16 18 21 22 21 20 18 17 15 15 15 15 15
4 2 2 2 3 5 6 6 6 6 7 6 5 4 4 5 5 4 4 5 4 3 3 4 4 4 5 8 9 9 9 10 12 13 14 15 15 15 15 9 4 7 10 11 11 11 11 10 10 9 9 10 10 10 11 11 11 10 9 8 7 7 7 6 6 6 7 8 9 11 12 14 15 17 19 21 21 20 18 17 16 15 15 15 15
3 1 2 3 4 5 5 5 5 7 8 8 7 6 6 5 5 5 5 5 4 4 3 4 4 3 5 9 10 10 10 10 12 13 14 15 14 14 13 10 8 9 9 8 8 8 8 8 9 9 9 10 10 10 11 11 11 11 10 10 9 9 8 8 8 8 8 8 9 11 12 13 15 16 19 21 21 20 19 17 16 16 16 16 16
2 1 3 5 5 5 5 4 5 7 8 9 9 8 7 6 6 6 6 6 6 5 4 3 3 2 4 9 11 11 11 11 12 12 13 13 12 11 10 9 9 10 9 8 7 6 7 7 7 8 9 9 10 11 11 11 12 12 12 12 12 11 10 9 10 10 9 10 10 12 13 13 14 16 18 21 22 21 19 18 17 16 16 17 17
3 3 4 5 5 4 4 3 4 5 6 8 9 10 9 8 7 7 7 8 7 7 5 5 4 3 4 8 11 11 11 11 12 12 11 11 11 10 9 8 8 9 10 9 8 7 7 7 7 7 8 9 10 11 11 12 12 13 13 13 14 14 13 12 12 12 12 12 12 13 14 14 14 15 17 20 21 21 20 18 18 17 17 17 17
5 5 5 5 4 3 3 2 3 3 4 6 7 8 9 9 8 8 8 8 8 7 7 7 6 5 5 8 10 11 11 11 10 10 9 9 9 8 8 8 8 8 9 10 10 10 9 9 9 8 8 9 11 12 12 13 14 14 15 15 16 16 16 15 15 15 15 15 15 15 15 15 15 15 17 19 20 20 20 18 18 17 17 17 17
7 7 6 5 4 3 2 2 3 3 4 4 4 5 7 9 10 10 9 9 8 8 7 8 8 6 6 8 9 10 11 10 8 8 8 8 7 7 6 7 7 8 10 11 12 12 12 12 12 11 10 10 11 13 14 15 16 16 17 17 18 19 19 19 19 18 18 18 17 17 17 16 16 16 16 18 20 20 19 18 18 17 17 17 17
11 10 10 9 7 6 4 3 3 4 5 5 4 3 5 8 10 10 10 10 10 10 9 9 9 9 8 9 10 10 10 10 9 8 6 5 6 6 6 7 8 9 10 12 13 14 15 15 15 14 14 13 13 14 16 17 18 19 19 20 21 22 22 22 22 21 20 20 19 19 18 17 17 16 17 18 19 20 19 19 19 18 17 17 17
13 12 11 10 9 8 7 6 4 3 4 4 4 3 3 5 7 8 9 10 11 11 10 9 10 11 10 9 9 9 9 10 9 8 6 6 5 6 6 6 7 8 8 9 11 13 14 16 16 16 16 15 15 16 17 19 21 23 23 23 24 24 24 24 24 23 22 22 21 21 20 18 17 17 18 19 19 20 20 20 20 19 18 18 18
12 11 9 8 7 6 5 6 6 6 4 4 4 3 2 3 3 4 6 8 10 11 9 8 9 11 12 11 10 10 10 10 9 8 7 7 7 6 6 6 6 6 7 8 9 10 12 14 16 16 16 17 18 18 19 20 22 23 24 24 26 26 26 26 26 25 24 24 23 22 21 20 18 18 18 19 20 20 20 20 20 19 19 19 19
6 4 3 4 5 4 4 4 5 5 4 4 4 4 4 4 4 3 3 5 9 10 9 8 8 9 11 12 11 11 11 10 10 9 9 9 9 8 8 8 8 8 8 9 9 11 12 14 16 17 17 19 20 20 20 20 21 23 24 24 25 27 26 27 27 26 26 26 25 24 23 21 19 18 19 20 20 20 20 20 20 20 19 19 19
11 10 9 6 5 5 5 5 4 4 3 3 3 3 4 5 6 6 5 5 7 9 9 9 9 8 9 10 11 11 12 11 11 11 11 11 10 10 10 11 11 11 11 12 12 13 13 15 16 17 18 20 21 20 20 20 20 23 24 24 26 27 27 27 28 28 27 26 26 25 24 22 19 18 19 20 20 20 20 20 20 20 20 19 19
9 8 9 9 7 6 7 7 5 4 3 3 2 2 3 3 5 6 7 6 6 7 8 8 8 8 8 9 10 11 12 12 12 12 12 12 12 12 12 13 13 13 14 14 15 16 16 16 17 18 19 20 20 20 19 19 20 21 23 25 27 28 28 28 29 29 28 26 25 25 24 21 19 18 19 21 21 20 20 21 21 21 20 19 19
10 9 9 9 9 8 7 7 6 6 5 4 3 3 3 3 4 5 6 7 7 7 8 8 9 9 10 10 11 12 12 12 12 13 13 13 13 13 13 13 13 13 14 14 15 16 16 17 19 19 19 19 20 19 18 18 18 20 22 25 27 28 29 28 29 31 30 26 25 24 23 21 19 18 19 21 21 20 21 22 22 22 20 20 20
10 9 8 9 9 8 7 7 7 7 7 6 5 5 5 5 5 5 6 7 8 8 9 9 9 10 11 11 12 12 12 12 13 13 13 13 12 12 11 12 12 12 13 13 14 15 16 17 19 19 18 18 19 19 17 17 18 19 21 24 25 27 28 29 30 31 30 27 25 23 22 21 19 17 19 20 20 20 21 23 23 21 20 19 20
9 8 8 8 8 8 8 7 7 8 8 8 8 8 7 7 7 7 7 8 8 9 9 10 11 11 12 12 12 12 12 12 13 13 13 13 14 14 14 14 14 14 15 15 16 16 17 18 19 20 19 19 20 21 20 20 21 22 23 24 26 26 26 28 30 31 29 27 26 22 20 20 18 17 18 19 19 20 22 23 22 20 19 19 20
9 8 7 7 7 7 6 7 8 8 9 9 10 10 10 10 10 10 10 10 10 11 12 13 14 14 15 15 15 15 14 14 15 15 16 17 17 18 18 18 19 18 18 18 19 19 20 21 22 23 23 23 23 24 23 22 23 24 26 27 28 26 26 27 29 30 30 28 25 21 18 18 17 16 17 18 19 20 22 22 20 19 19 20 20
10 9 7 5 5 6 6 7 8 9 10 10 11 12 12 12 13 13 13 13 13 13 14 15 17 17 18 19 19 18 18 18 19 19 20 21 22 22 22 23 23 23 22 23 23 23 23 24 24 25 25 24 25 26 25 25 25 26 28 30 31 29 29 29 29 30 30 27 22 19 17 16 15 14 15 18 20 21 20 19 19 20 21 21 21
7 7 7 5 5 6 7 8 9 10 11 12 12 13 14 14 15 15 16 16 16 17 17 18 19 20 20 21 21 21 22 22 23 24 24 24 25 25 25 25 26 26 25 25 25 25 26 26 25 25 24 25 26 27 27 27 26 25 27 29 30 29 28 29 29 29 28 24 20 18 15 14 14 14 16 19 21 21 19 16 17 20 22 23 23
3 2 4 5 6 7 7 8 9 10 11 11 12 13 13 14 15 16 17 17 18 19 20 21 22 22 22 23 23 23 23 24 25 26 27 27 27 28 27 27 27 27 26 26 26 26 25 25 25 24 24 24 25 26 26 25 25 25 26 27 28 28 27 28 30 29 26 21 19 16 14 13 13 14 16 18 19 19 18 16 16 19 22 22 22
Wind_Direction
160 158 157 157 151 145 143 139 134 129 134 135 135 140 153 174 192 201 198 203 210 212 213 209 199 194 189 182 167 147 130 124 124 117 113 105 97 90 85 80 67 56 44 49 68 81 84 73 65 61 57 59 58 57 57 55 56 59 59 62 64 63 62 60 58 57 58 60 60 62 61 60 57 56 56 56 56 53 53 52 51 51 50 50 47
161 160 159 160 154 150 151 148 147 145 148 151 148 145 155 167 175 188 190 191 199 208 212 209 203 198 191 185 174 159 146 142 140 130 125 113 99 89 90 87 79 68 56 70 77 75 75 63 56 63 60 65 71 70 70 71 71 72 70 70 69 68 67 64 63 61 60 61 61 61 61 61 60 59 57 57 57 55 55 53 50 49 48 48 46
161 164 163 164 163 163 167 170 175 179 175 168 161 158 167 173 172 183 191 188 191 195 196 198 199 200 198 194 188 185 179 166 156 148 141 121 114 122 116 90 82 83 67 80 93 87 78 58 49 64 78 83 85 84 82 82 80 78 76 74 73 73 73 71 69 68 67 66 65 63 60 59 56 54 53 51 53 51 52 52 50 50 48 47 46
164 167 168 169 171 174 180 187 196 203 199 187 175 166 173 183 185 193 199 193 188 187 177 175 189 198 201 200 203 206 196 178 168 163 157 142 142 156 136 99 66 77 86 107 112 98 83 66 49 67 91 94 91 89 86 82 79 76 74 74 73 73 73 73 71 69 66 65 64 64 62 61 59 56 52 50 49 48 49 49 49 50 49 48 46
169 171 173 174 174 178 185 193 201 205 202 195 185 174 169 178 187 195 204 202 197 190 174 168 178 189 196 203 209 203 187 177 176 172 165 161 163 162 129 107 73 63 88 117 122 105 92 94 92 95 99 96 89 83 77 71 67 67 67 68 68 69 69 70 70 67 63 60 59 62 63 61 60 59 58 56 52 49 49 50 51 50 50 49 46
176 177 176 175 175 177 184 192 197 197 194 189 185 180 174 174 183 190 201 206 203 195 183 176 179 186 194 203 200 189 184 182 183 179 174 176 169 157 127 122 126 94 84 110 123 113 101 98 100 101 94 89 85 75 67 58 50 50 54 54 55 60 61 62 64 61 58 54 50 53 58 58 59 59 58 59 58 55 52 51 50 50 50 50 48
184 185 182 177 175 172 178 188 191 192 193 188 185 182 179 178 185 190 196 202 200 194 189 182 184 192 196 204 199 190 194 191 184 184 188 193 177 162 145 141 141 125 112 120 126 122 115 110 105 105 101 96 93 80 74 64 43 33 36 36 35 43 44 46 49 45 44 42 38 41 47 48 51 54 55 56 60 59 57 55 52 49 48 48 48
188 190 190 188 183 176 178 184 186 192 196 196 195 192 189 187 191 197 195 195 193 187 186 181 183 191 188 193 195 188 191 188 184 192 192 187 176 171 161 144 131 126 125 126 127 129 128 126 118 112 109 104 95 83 75 63 46 20 22 27 21 28 34 36 30 21 23 25 24 22 25 29 32 39 42 42 47 52 52 52 51 50 45 42 39
188 193 197 197 193 189 187 187 189 195 201 203 203 202 199 194 196 200 192 186 185 181 180 179 178 182 176 175 176 171 175 180 187 194 183 176 174 174 168 150 132 127 124 121 123 131 134 131 122 110 103 99 88 77 67 60 59 36 28 31 24 23 35 41 23 5 12 24 21 6 2 10 11 15 17 18 22 28 34 35 36 40 40 37 31
193 199 201 200 200 200 198 194 193 199 206 204 201 201 201 197 196 198 193 183 177 177 180 178 176 173 164 159 159 157 165 179 184 176 170 175 177 173 169 159 143 132 127 125 123 125 128 125 117 105 99 96 82 67 64 60 57 45 42 48 41 32 37 49 33 18 25 35 31 355 351 2 2 3 0 360 359 356 5 10 6 11 16 17 21
198 204 203 202 204 204 202 200 198 200 207 202 196 197 196 196 196 195 194 185 173 176 180 178 175 166 154 149 150 156 167 171 164 160 166 175 178 173 171 162 146 141 140 133 126 123 124 122 113 98 84 74 62 60 62 62 60 51 49 55 56 48 49 55 47 42 46 44 38 20 13 16 11 7 2 357 349 340 345 346 338 341 349 346 356
201 204 204 204 205 202 199 202 199 196 203 200 193 194 191 193 197 193 192 186 175 175 179 179 173 154 144 150 147 149 160 159 156 159 166 174 177 172 171 165 151 150 148 135 129 126 124 119 109 90 66 55 57 65 69 77 80 70 60 61 67 66 67 72 69 65 62 55 49 42 38 37 34 29 24 16 4 351 341 330 320 320 323 321 332
202 204 204 205 205 201 200 202 197 193 198 196 191 191 188 189 195 191 187 186 179 176 174 175 170 151 145 153 148 143 151 155 155 159 168 175 174 170 171 169 160 157 153 144 143 142 135 118 97 79 72 70 73 76 81 92 96 86 73 71 76 79 81 79 72 67 63 58 54 51 49 48 47 41 34 31 28 22 9 349 325 316 310 305 315
199 199 201 205 205 201 204 205 198 199 201 197 195 193 188 187 193 189 184 185 184 181 172 165 169 160 154 155 148 143 150 164 165 163 172 176 171 174 178 175 168 167 167 165 165 166 168 166 141 115 99 93 91 90 93 97 102 98 83 78 82 84 84 78 67 61 59 57 54 52 51 49 47 41 35 34 32 30 26 18 5 351 335 307 304
192 195 201 204 203 199 204 205 201 206 206 203 202 196 191 187 189 188 186 187 187 187 180 171 171 163 156 155 151 143 133 155 175 173 178 179 175 180 184 181 179 184 187 186 189 189 190 183 153 128 114 108 102 101 100 99 103 102 90 84 83 81 79 73 64 59 57 55 52 50 49 46 43 39 34 33 32 32 33 30 26 21 12 343 310
189 196 202 201 202 201 201 201 201 207 204 202 202 195 192 189 189 188 189 192 191 189 187 183 179 168 162 157 156 150 131 151 174 166 175 188 185 189 192 190 190 196 197 197 200 196 181 163 141 129 120 117 112 109 108 105 103 101 96 89 83 78 72 63 59 57 54 52 49 46 45 42 39 36 34 32 32 34 35 34 32 28 25 20 358
188 195 201 197 198 198 195 192 195 200 198 195 191 187 189 189 189 189 189 194 198 196 190 186 186 184 181 165 159 164 156 165 170 149 156 189 186 186 193 195 199 206 203 198 197 181 161 149 137 133 129 126 122 117 114 109 107 105 100 92 83 75 68 62 59 56 55 53 49 46 44 44 43 41 42 41 39 38 38 38 36 33 31 28 30
184 189 192 189 188 188 186 186 188 191 192 191 185 182 186 187 187 187 189 192 199 206 198 191 191 191 192 182 169 172 164 167 168 146 140 163 168 171 185 192 194 200 189 173 170 161 150 142 136 136 134 128 123 118 114 110 108 106 99 90 80 74 69 67 65 61 60 56 53 51 48 48 48 47 48 48 48 47 45 43 42 39 35 33 46
176 180 183 183 184 185 188 188 188 189 191 190 186 182 182 185 187 186 187 191 194 205 209 203 198 195 194 187 161 136 142 161 173 160 148 149 156 162 173 171 158 158 156 150 152 151 144 139 135 133 128 123 118 114 111 107 105 102 97 90 83 80 76 72 70 65 61 57 53 51 47 46 45 44 45 45 47 48 47 47 46 46 42 41 57
176 178 180 182 186 191 197 195 193 194 193 192 191 188 184 185 191 190 191 195 192 198 215 214 208 206 199 192 178 140 134 155 173 168 158 150 151 157 159 151 145 146 146 143 144 142 138 134 130 125 120 117 114 111 111 108 106 101 95 90 84 81 78 73 69 64 59 56 53 49 46 44 42 41 41 42 43 44 45 45 45 48 49 48 57
178 175 175 179 183 188 191 191 193 193 192 193 193 193 192 192 195 197 200 202 199 200 209 212 218 222 209 201 208 197 174 169 162 173 171 158 156 157 154 148 146 146 143 140 136 135 135 132 127 121 117 118 117 118 118 112 107 103 95 89 84 80 76 71 66 61 58 55 54 52 49 47 45 43 41 41 42 42 43 43 43 46 49 49 52
173 172 176 182 184 184 181 183 187 187 187 191 195 195 198 200 201 206 209 209 208 208 209 207 213 222 217 214 223 221 217 210 183 183 184 173 167 164 159 154 149 145 141 140 137 139 140 135 129 125 122 126 127 124 120 114 109 105 98 90 85 79 73 69 66 63 61 58 56 53 49 46 44 41 38 37 36 36 36 38 39 41 44 46 47
162 162 177 188 188 183 178 180 180 177 179 187 194 194 196 203 206 212 217 215 214 214 214 211 209 210 210 215 224 227 233 237 221 202 187 175 169 166 163 158 149 145 143 141 139 143 144 139 136 132 131 133 132 125 119 117 112 104 99 91 83 76 73 71 69 66 62 58 55 51 48 45 42 39 37 35 32 31 30 30 31 31 34 36 37
152 152 168 183 187 183 178 177 174 171 176 185 190 187 191 200 205 212 218 217 217 216 215 213 212 213 214 214 213 216 222 223 235 228 202 186 172 165 163 159 150 147 146 140 136 140 141 141 140 136 137 136 130 125 121 120 114 105 98 90 82 78 77 74 70 67 64 60 56 53 50 47 44 41 39 37 35 33 31 30 28 27 26 26 26
141 144 155 166 177 180 172 165 164 167 176 190 197 195 197 203 205 209 213 215 217 217 215 213 214 216 219 220 212 208 212 209 212 220 209 201 183 165 158 156 155 151 149 142 136 139 141 142 142 139 139 135 129 128 126 123 116 106 98 93 89 85 82 78 75 72 68 65 60 57 53 49 45 42 39 37 35 33 31 29 27 25 23 21 20
133 139 148 155 164 175 177 168 163 168 172 192 209 207 207 207 208 209 207 210 213 214 215 214 215 216 218 221 218 212 209 202 197 195 199 203 192 174 162 156 156 152 150 147 140 140 144 143 142 140 138 136 134 134 133 127 117 109 103 100 98 93 88 85 81 78 75 71 67 62 58 53 49 46 43 40 37 34 31 28 25 22 20 19 16
129 134 144 151 155 165 175 170 164 172 175 169 204 205 206 205 208 209 206 210 214 217 220 218 217 217 218 220 221 223 214 195 184 182 191 202 201 193 182 166 159 157 157 155 149 149 152 147 142 143 141 140 142 142 139 134 125 119 114 110 107 102 98 93 88 84 80 74 69 64 59 54 50 47 44 41 39 36 32 29 27 24 22 20 16
126 129 135 143 150 155 160 160 163 172 179 181 181 194 202 206 208 209 209 214 219 225 228 225 221 216 217 216 212 217 208 185 176 177 186 197 203 204 194 176 165 166 166 163 162 162 158 152 147 149 150 150 153 153 151 149 142 135 130 124 119 112 105 99 91 84 76 68 62 56 51 47 44 41 39 37 35 33 30 27 26 25 24 23 21
124 125 127 135 147 151 151 156 166 176 182 193 191 188 198 206 208 207 211 216 221 226 228 229 223 216 216 209 199 198 190 179 176 175 176 185 199 204 193 180 173 177 173 168 170 171 166 161 159 159 161 162 164 166 165 164 159 151 146 142 136 126 115 101 86 73 61 52 46 42 39 36 34 33 32 31 30 28 27 25 24 23 23 23 22
118 114 117 134 151 156 157 161 169 178 185 198 207 202 196 199 205 208 207 208 215 221 223 228 225 219 211 198 192 187 179 176 175 171 167 172 191 200 191 181 200 195 183 171 167 173 173 171 170 168 169 171 174 178 178 175 174 169 165 164 162 161 154 109 65 52 42 35 32 29 28 26 25 24 24 23 23 23 22 22 21 21 21 19 18
113 103 104 125 150 162 170 175 174 178 187 194 208 217 198 188 194 200 195 189 195 203 204 202 206 209 198 192 193 183 168 166 168 167 162 164 183 194 192 188 284 221 191 171 165 172 175 173 172 171 174 178 181 186 187 186 186 185 185 188 196 212 234 256 5 23 19 19 20 19 18 18 17 17 17 16 15 16 17 17 17 17 17 15 12
115 105 100 113 143 164 177 183 178 178 186 186 189 195 185 178 179 184 179 170 171 170 135 90 95 151 181 184 186 173 157 162 169 167 160 161 175 187 190 191 121 166 179 169 163 168 169 170 174 175 179 183 186 191 194 196 198 198 202 209 220 238 252 260 284 334 350 359 6 7 7 8 9 9 10 9 8 10 11 11 11 11 11 10 8
124 113 109 124 149 164 173 176 172 175 180 177 172 164 160 164 168 170 166 157 156 146 110 84 85 118 161 171 174 168 160 167 171 167 161 161 168 180 188 192 161 150 163 165 165 168 168 171 179 183 186 187 191 197 200 204 207 210 217 227 238 250 256 258 270 299 323 338 348 351 355 357 359 1 2 2 2 4 6 5 4 5 5 5 3
141 131 124 140 147 151 155 157 162 172 176 175 170 161 156 163 170 172 165 158 157 145 109 89 82 104 151 163 168 167 163 167 170 165 160 157 161 173 185 191 178 164 162 163 168 177 183 185 186 191 193 191 197 204 206 209 212 217 226 235 244 251 254 258 269 288 305 317 327 333 339 344 348 352 354 356 357 359 360 359 359 360 0 360 358
147 145 141 139 137 138 139 142 157 169 176 179 177 172 171 175 180 178 171 163 156 145 126 111 90 85 151 163 166 167 164 166 164 158 154 153 157 171 184 190 190 188 187 184 182 186 198 204 201 204 207 203 204 209 209 209 211 217 226 233 243 251 257 261 270 283 294 302 310 316 322 329 336 343 347 349 352 353 353 353 353 354 355 355 354
148 146 151 143 135 136 138 145 163 173 180 184 183 184 185 187 191 187 177 168 156 146 144 142 121 100 147 163 164 164 164 162 156 151 151 155 161 173 185 194 202 208 212 215 215 212 216 221 216 216 221 219 217 218 215 213 214 219 225 231 240 251 259 264 270 279 285 290 296 300 307 315 324 333 339 343 347 348 347 347 348 349 350 350 349
141 144 151 147 140 147 156 163 173 179 187 190 191 194 195 196 197 192 182 174 165 156 157 157 143 123 141 160 164 164 162 159 155 155 158 160 165 176 187 199 213 221 227 235 238 238 236 235 235 235 232 228 228 229 225 221 220 222 227 233 238 247 256 261 266 272 276 280 284 289 296 304 313 323 331 337 341 342 342 341 342 344 345 345 344
135 133 130 127 127 142 167 188 189 186 185 183 187 196 198 198 196 191 186 182 180 178 177 172 161 145 144 158 163 164 163 162 163 166 169 172 181 193 205 219 231 237 242 248 251 252 250 246 246 245 242 242 241 239 236 232 230 230 232 235 240 246 252 256 260 265 269 272 276 280 287 295 304 314 323 331 335 336 336 336 337 338 339 340 340
128 121 114 110 108 106 107 127 164 183 183 173 164 165 180 191 193 193 192 190 190 195 199 194 181 168 160 161 164 166 169 172 176 178 185 201 215 226 237 245 249 253 256 257 258 258 256 253 250 245 245 249 248 246 244 239 236 237 238 239 242 248 251 254 259 263 266 268 271 275 281 288 297 307 315 324 329 331 332 332 332 333 333 334 334
127 122 118 115 110 102 92 87 97 131 165 173 162 145 156 182 194 200 204 203 202 205 210 210 201 191 183 178 175 174 177 182 186 190 202 220 235 244 248 252 255 258 261 261 259 257 254 253 251 247 245 247 247 247 244 239 238 241 244 245 246 250 254 256 259 263 265 266 268 271 277 283 291 301 309 317 323 326 327 326 326 327 328 328 329
132 128 125 123 121 115 105 94 90 96 116 145 159 161 165 176 191 209 218 215 209 208 211 211 206 200 198 198 196 193 194 198 204 213 220 224 230 237 243 247 251 256 259 260 259 257 255 252 250 249 248 247 249 250 248 247 247 249 251 250 249 252 256 257 259 262 263 263 265 268 273 279 286 296 305 312 318 320 320 320 320 321 323 324 325
194 190 184 146 139 148 149 131 117 115 122 136 148 160 178 188 198 215 231 222 210 207 207 204 201 199 200 206 210 211 212 216 222 232 236 235 237 241 245 247 248 250 253 255 256 256 256 254 252 250 248 248 252 256 257 259 257 254 255 254 252 255 257 256 257 260 261 261 262 264 269 275 282 291 300 307 312 313 314 315 316 316 318 320 322
244 252 255 223 173 178 187 173 161 159 161 166 164 165 177 191 203 212 220 223 214 210 211 210 210 207 205 210 214 218 221 225 229 235 238 240 243 247 253 256 256 256 255 255 255 253 252 252 253 251 250 252 258 261 262 262 259 257 258 257 257 258 258 257 257 260 263 263 260 262 266 271 277 286 295 302 306 308 310 311 312 313 315 318 321
233 231 226 208 196 204 201 190 188 192 200 218 218 210 206 201 202 208 212 213 212 214 219 222 224 226 225 224 225 226 228 231 234 238 242 247 253 259 265 267 265 263 261 259 257 253 250 250 251 252 253 256 260 261 261 262 261 261 260 259 259 260 260 261 260 261 266 266 260 258 261 267 275 283 292 299 302 305 308 310 311 313 315 318 320
212 206 200 202 210 216 209 202 207 214 223 237 242 240 238 229 217 211 210 210 210 212 218 225 230 233 236 239 240 240 241 242 245 249 254 260 264 268 269 268 267 267 266 263 260 256 254 252 253 255 257 258 260 263 265 266 266 266 264 264 264 265 264 263 259 260 266 264 255 254 258 264 272 282 291 297 300 303 307 309 311 313 316 319 321
202 201 201 209 217 221 220 219 220 226 235 241 243 245 244 241 238 230 223 219 216 216 217 218 221 226 232 237 241 243 245 248 251 255 259 262 264 266 268 269 271 272 271 269 266 262 259 258 258 260 264 265 265 267 269 269 268 268 269 272 273 272 269 265 260 260 262 257 251 251 254 260 269 283 291 295 299 303 307 307 309 312 314 317 320
198 201 203 207 214 220 226 229 230 235 241 244 247 249 249 249 248 247 246 241 236 233 231 228 227 227 228 231 234 237 240 243 247 253 258 261 263 266 268 270 271 273 273 273 272 271 270 268 267 267 267 268 269 270 270 272 273 274 275 277 276 273 269 264 259 256 252 248 247 247 251 261 273 285 290 293 298 303 305 305 307 309 311 314 317
198 201 202 205 213 221 229 237 241 246 249 251 253 253 253 255 256 257 258 258 256 255 251 248 246 244 241 240 240 241 242 244 247 252 257 261 265 268 269 270 271 272 271 270 270 270 271 272 274 274 273 273 273 274 275 277 280 281 280 277 273 267 260 255 252 250 246 243 243 244 253 268 278 285 288 291 297 301 301 302 305 307 310 313 315
201 201 201 207 224 236 245 251 254 258 260 260 261 262 261 261 262 262 262 262 262 262 261 261 260 257 256 255 254 253 252 253 256 259 262 265 268 270 270 271 271 269 267 267 267 267 268 270 273 276 277 278 277 277 279 280 280 280 280 278 274 267 260 255 252 249 244 240 240 248 262 275 284 288 290 293 297 297 298 301 305 309 311 313 315
204 209 208 219 243 250 251 255 258 259 261 262 264 265 266 267 267 266 265 265 264 264 263 264 265 265 264 264 263 262 261 261 263 265 266 267 268 268 268 269 271 269 268 268 268 268 269 271 272 273 274 274 274 275 276 276 276 276 277 279 277 269 261 260 256 246 238 236 242 255 267 278 287 292 295 298 299 298 300 306 310 312 313 314 315
201 208 206 226 249 254 254 259 261 262 264 267 268 269 270 271 271 270 269 269 268 267 266 266 266 266 265 264 264 264 264 265 266 266 265 265 266 267 267 267 269 270 271 270 269 269 269 270 270 270 270 270 270 270 271 272 274 276 278 280 278 270 264 262 252 237 231 237 246 254 263 270 278 287 293 297 298 298 303 312 315 312 311 312 314